Location: Contigny
(46.3528°N, 3.3043°E)
Time: 11:26:23
(UTC+00:00)

Daily predictions for brighter satellites

Satellite Brightness Start Highest point End
(mag) Time Altitude Azimuth Time Altitude Azimuth Time Altitude Azimuth
Starlink AS 2.7 17:02:29 10° SW 17:05:24 79° SSE 17:08:20 10° ENE
Starlink BA 2.7 17:02:43 10° SW 17:05:37 80° SSE 17:08:34 10° ENE
Starlink AU 2.7 17:02:56 10° SW 17:05:50 80° SSE 17:08:47 10° ENE
Starlink AT 2.7 17:03:09 10° SW 17:06:04 80° SSE 17:09:01 10° ENE
Cosmos 2360 Rocket 3.6 17:00:48 10° NW 17:06:08 45° WSW 17:11:27 10° S
Starlink BB 2.7 17:03:23 10° SW 17:06:18 81° SSE 17:09:14 10° ENE
Starlink BC 2.7 17:03:36 10° SW 17:06:31 81° SSE 17:09:27 10° ENE
Nadezhda 3 Rocket 4.3 17:00:40 10° N 17:06:42 46° ENE 17:12:44 10° SSE
Starlink BK 2.7 17:03:50 10° SW 17:06:45 81° SSE 17:09:41 10° ENE
Starlink AY 2.7 17:04:03 10° SW 17:06:58 82° SSE 17:09:54 10° ENE
Starlink AW 2.7 17:04:17 10° SW 17:07:12 82° SE 17:10:08 10° ENE
Starlink BJ 2.7 17:04:29 10° SW 17:07:24 83° SSE 17:10:20 10° ENE
H-2A R/B 2.7 17:03:34 10° SSE 17:07:24 84° ENE 17:11:18 10° N
Starlink AV 2.7 17:04:42 10° SW 17:07:37 83° SSE 17:10:33 10° ENE
Starlink BD 2.7 17:04:56 10° SW 17:07:50 83° SSE 17:10:47 10° ENE
Starlink BE 2.7 17:05:07 10° SW 17:08:02 84° SSE 17:10:58 10° ENE
Starlink BM 2.7 17:05:22 10° WSW 17:08:17 84° SE 17:11:13 10° ENE
Cosmos 1125 Rocket 4.0 17:03:41 10° S 17:08:26 39° ESE 17:13:15 10° NE
Starlink AX 2.7 17:05:35 10° WSW 17:08:30 84° SSE 17:11:27 10° ENE
Starlink BH 2.7 17:05:50 10° WSW 17:08:45 85° SSE 17:11:41 10° ENE
Starlink AZ 2.7 17:06:02 10° WSW 17:08:57 85° SSE 17:11:53 10° ENE
Starlink BG 2.7 17:06:15 10° WSW 17:09:11 85° SSE 17:12:07 10° ENE
Starlink BF 2.7 17:06:28 10° WSW 17:09:24 86° SE 17:12:20 10° ENE
Starlink BL 2.7 17:06:40 10° WSW 17:09:36 86° SSE 17:12:33 10° ENE
Starlink AH 2.7 17:06:55 10° WSW 17:09:50 86° SSE 17:12:46 10° ENE
Starlink AC 2.7 17:07:09 10° WSW 17:10:04 87° SSE 17:13:00 10° ENE
Starlink X 2.7 17:07:22 10° WSW 17:10:17 87° SSE 17:13:14 10° ENE
Starlink AE 2.7 17:07:33 10° WSW 17:10:29 87° SSE 17:13:25 10° ENE
Starlink Z 2.7 17:07:50 10° WSW 17:10:45 88° SSE 17:13:42 10° ENE
Starlink AK 2.7 17:08:02 10° WSW 17:10:58 88° SE 17:13:54 10° ENE
Okean-O 2.9 17:06:50 10° SE 17:11:03 44° ENE 17:15:16 10° N
Starlink AL 2.7 17:08:16 10° WSW 17:11:11 89° SSE 17:14:07 10° ENE
Starlink AD 2.7 17:08:29 10° WSW 17:11:25 89° SE 17:14:21 10° ENE
Starlink Y 2.7 17:08:57 10° WSW 17:11:52 90° ESE 17:14:48 10° ENE
Starlink AG 2.7 17:09:12 10° WSW 17:12:07 90° W 17:15:03 10° ENE
Starlink W 2.7 17:09:24 10° WSW 17:12:19 89° NW 17:15:16 10° ENE
Starlink AJ 2.7 17:09:37 10° WSW 17:12:33 89° N 17:15:28 10° ENE
Starlink AM 2.7 17:10:07 10° WSW 17:13:02 88° NNW 17:15:56 10° ENE
Starlink AP 2.7 17:10:18 10° WSW 17:13:13 88° NNW 17:16:07 10° ENE
Starlink AA 2.7 17:10:33 10° WSW 17:13:29 88° NNW 17:16:22 10° ENE
Okean O Rocket 3.5 17:09:33 10° SSW 17:13:37 36° W 17:17:45 10° NNW
Starlink AF 2.7 17:10:45 10° WSW 17:13:40 87° NW 17:16:33 10° ENE
Starlink AB 2.7 17:10:58 10° WSW 17:13:54 87° NNW 17:16:46 10° ENE
Cosmos 2219 Rocket 2.2 17:08:13 10° NNW 17:13:56 78° ENE 17:19:36 10° SSE
Starlink AN 2.7 17:11:12 10° WSW 17:14:07 87° NW 17:17:00 11° ENE
NOSS 0 Rocket 4.1 17:08:12 10° NNW 17:14:18 51° NE 17:20:18 10° SE
Cosmos 2227 Rocket 3.7 17:10:56 10° SE 17:14:21 17° E 17:17:46 10° ENE
Cosmos 1626 Rocket 3.7 17:11:09 10° SSE 17:15:20 50° E 17:19:32 10° NNE
COSMOS 2428 2.7 17:10:31 10° NNW 17:16:18 79° ENE 17:22:02 10° SSE
Timation 2 Rocket 4.0 17:12:33 10° SSW 17:18:33 65° ESE 17:24:48 10° NNE
Envisat 3.0 17:15:58 10° SSE 17:21:00 67° ENE 17:26:04 10° N
Starlink T 2.8 17:20:23 10° WSW 17:23:20 73° NNW 17:25:51 13° NE
Starlink N 2.8 17:21:38 10° WSW 17:24:34 71° NNW 17:27:02 14° NE
Cosmos 1269 Rocket 4.4 17:21:01 10° N 17:26:00 40° ENE 17:30:56 10° SE
Starlink Q 2.8 17:23:11 10° WSW 17:26:06 69° NNW 17:28:32 14° NE
Starlink P 2.9 17:24:31 10° WSW 17:27:27 68° NNW 17:29:49 14° NE
Cosmos 1048 Rocket 3.9 17:23:13 10° NNW 17:28:24 87° ENE 17:33:32 10° SSE
Starlink U 2.9 17:25:51 10° WSW 17:28:47 66° NNW 17:31:07 15° NE
CZ-4 R/B 2.0 17:26:07 10° SE 17:29:46 35° ENE 17:33:32 10° N
Alouette 2 Rocket 4.4 17:25:12 10° NNW 17:29:53 85° WSW 17:37:07 10° S
Starlink B 2.9 17:27:14 10° WSW 17:30:09 64° NNW 17:32:26 15° NE
Cosmos 372 Rocket 4.3 17:28:17 10° SSW 17:33:23 70° WNW 17:38:34 10° NNE
Cosmos 1607 3.9 17:28:39 10° SW 17:34:47 90° NW 17:41:00 10° NE
Starlink D 3.1 17:32:47 10° WSW 17:35:43 59° NNW 17:37:48 17° NE
SJ 16-02 3.9 17:33:36 10° W 17:36:37 18° NW 17:39:40 10° NNW
Starlink S 3.1 17:34:13 10° WSW 17:37:09 57° NNW 17:39:11 18° NE
ADEOS Rocket 4.4 17:32:19 10° NE 17:37:15 22° E 17:42:27 10° SE
Starlink C 3.1 17:35:36 10° WSW 17:38:32 56° NNW 17:40:31 18° NE
Starlink E 3.2 17:37:03 10° WSW 17:39:59 55° NNW 17:41:54 19° NE
Starlink J 3.2 17:38:29 10° WSW 17:41:26 53° NNW 17:43:18 20° NE
Starlink V 3.2 17:39:55 10° WSW 17:42:51 52° NNW 17:44:39 20° NE
Starlink H 3.3 17:41:23 10° WSW 17:44:18 51° NNW 17:46:03 21° NE
Starlink F 3.3 17:42:51 10° WSW 17:45:46 50° NNW 17:47:28 21° NE
Meteor 2-17 Rocket 4.5 17:40:52 10° S 17:46:53 60° E 17:52:55 10° NNE
Starlink G 3.3 17:44:18 10° WSW 17:47:12 49° NNW 17:48:51 22° NE
Starlink L 3.4 17:45:45 10° W 17:48:40 48° NNW 17:50:15 23° NE
Meteor 2-10 Rocket 4.2 17:45:01 10° N 17:49:53 33° ENE 17:54:32 10° SE
Starlink A 3.4 17:47:13 10° W 17:50:08 47° NNW 17:51:40 23° NE
SKYMED 2 3.5 17:46:12 10° NNE 17:50:32 63° ESE 17:54:50 10° S
CSL-04 Debris 4.3 17:45:37 10° SE 17:50:48 50° ENE 17:56:01 10° N
ERBS 3.4 17:48:20 10° S 17:51:12 27° SE 17:52:10 23° E
Starlink R 3.4 17:48:42 10° W 17:51:37 46° NNW 17:53:05 24° NE
Starlink K 3.5 17:50:09 10° W 17:53:03 45° NNW 17:54:28 24° NE
Starlink M 3.5 17:51:34 10° W 17:54:28 44° NNW 17:55:49 25° NE
Cosmos 724 4.5 17:51:57 10° SSW 17:57:43 52° ESE 18:01:56 18° NE
USA 267 4.0 17:54:02 14° NE 17:59:18 45° NNW 18:05:26 10° W
CZ-2D R/B 3.6 17:56:09 10° SE 17:59:43 40° ENE 18:03:20 10° N
Cosmos 2218 Rocket 4.4 17:55:45 10° SSE 18:01:33 40° E 18:07:26 10° NNE
ATLAS CENTAUR R/B 4.2 17:56:50 10° W 18:02:31 58° NNW 18:15:08 16° NE
Cosmos 1812 Rocket 3.9 17:58:23 10° NNW 18:02:51 70° W 18:07:17 10° S
USA 116 3.6 18:02:58 34° ENE 18:03:34 38° E 18:06:30 10° S
Cosmos 494 Rocket 4.0 17:59:16 10° NNW 18:04:25 82° WSW 18:09:31 10° SSE
Cosmos 2237 Rocket 2.1 17:58:52 10° NNW 18:04:32 76° ENE 18:10:09 10° SSE
Ariane Rocket 3.7 18:00:10 10° SE 18:04:32 30° ENE 18:08:56 10° N
Cosmos 2333 Rocket 3.6 17:59:36 10° NW 18:04:57 42° WSW 18:10:13 10° S
Cosmos 1300 4.0 18:02:21 10° NNW 18:06:00 43° W 18:09:37 10° SSW
Cosmos 1241 Rocket 4.5 18:01:12 10° NW 18:07:26 87° WSW 18:13:41 10° SSE
Cosmos 2154 Rocket 4.4 18:03:43 10° SSW 18:09:58 68° W 18:16:14 10° N
NOAA 15 4.5 18:05:18 10° SSE 18:10:33 80° ENE 18:15:51 10° NNW
YAOGAN 1 2.4 18:06:38 10° SSE 18:10:56 76° ENE 18:15:17 10° N
H-2A R/B 3.6 18:15:09 17° NNE 18:15:09 17° NNE 18:16:51 10° NNE
Meteor 1-21 Rocket 4.1 18:09:50 10° S 18:15:23 73° E 18:21:04 10° NNE
Cosmos 1340 Rocket 3.8 18:11:45 10° NNW 18:15:34 48° W 18:19:24 10° S
Starlink AR 4.0 18:15:47 10° WNW 18:17:52 26° NNW 18:17:52 26° NNW
CSL-04 Rocket 3.6 18:13:47 10° SSE 18:19:16 83° ENE 18:24:51 10° NNW
Cosmos-2242 2.9 18:14:56 10° N 18:19:16 70° E 18:23:33 10° SSE
Cosmos 1455 2.2 18:18:24 10° N 18:22:11 55° ENE 18:25:55 10° SSE
NOSS 2-1 (C) 4.3 18:17:04 10° NW 18:22:19 71° NE 18:29:26 11° SE
Cosmos 1626 4.2 18:20:09 10° SW 18:23:24 28° WNW 18:26:40 10° NNW
Cosmos 2251 Rocket 4.0 18:18:35 10° N 18:23:29 37° ENE 18:24:10 35° ENE
SL-16 R/B 2.5 18:19:47 10° NNW 18:25:15 45° NE 18:27:14 33° ESE
NOSS 2-1 (D) 4.3 18:20:52 10° NW 18:26:09 75° NE 18:33:20 11° SE
ATLAS 5 CENTAUR R/B 3.8 18:24:36 10° WNW 18:27:47 18° NNW 18:30:44 12° NNE
Cosmos 1959 Rocket 4.4 18:22:15 10° S 18:28:18 61° E 18:34:20 10° NNE
USA 32 4.3 18:24:09 10° SSW 18:29:22 71° W 18:34:36 10° N
Cosmos 2219 3.2 18:24:35 10° SSW 18:30:12 84° WNW 18:34:24 19° NNE
DMSP B5D1-3 4.4 18:26:17 14° NNE 18:30:41 65° ESE 18:35:45 10° S
DELTA 2 R/B (1) 4.4 18:27:42 10° WSW 18:32:52 39° S 18:34:49 30° SE
Cosmos 2082 4.0 18:28:43 10° S 18:33:58 43° ESE 18:34:39 41° E
Cosmos 1939 Rocket 2.9 18:33:19 10° S 18:37:11 76° WSW 18:41:10 10° NNW
Cosmos 2366 rocket 3.9 18:32:14 10° S 18:38:23 70° E 18:44:38 10° NNE
COSMO-SKYMED 1 3.8 18:34:28 10° N 18:38:35 42° WNW 18:42:40 10° SW
CZ-4C R/B 3.9 18:34:10 10° NW 18:41:10 48° WSW 18:49:00 10° S
Cosmos 1953 Rocket 3.5 18:37:21 10° S 18:41:50 86° E 18:44:04 30° N
BREEZE-M DEB (TANK) 3.9 18:42:37 10° WSW 18:43:51 30° WSW 18:43:51 30° WSW
Cosmos 2297 Rocket 2.1 18:39:52 10° SSW 18:45:31 89° WNW 18:48:25 31° NNE
Cosmos 1758 Rocket 4.4 18:42:58 10° SSW 18:47:09 50° WNW 18:51:22 10° N
Cosmos 1932 4.4 18:40:59 10° SSW 18:47:20 79° ESE 18:50:04 37° NE
ATLAS CENTAUR R/B 3.4 18:53:28 10° NNW 18:54:50 18° N 18:54:50 18° N
Cosmos 2227 Rocket 2.2 18:52:00 10° SSW 18:57:40 80° WNW 18:59:59 37° NNE
ISS -1.4 18:58:34 10° SW 18:59:47 20° SSW 18:59:47 20° SSW
Cosmos 1727 Rocket 3.8 18:56:44 10° N 19:02:58 85° E 19:09:09 10° S
Cosmos 1703 4.3 18:59:39 10° SSW 19:02:18 40° SSW 19:02:18 40° SSW
BREEZE-M DEB (TANK) 4.1 18:46:32 10° W 19:03:54 70° N 19:05:05 55° NE
CZ-4 R/B 3.9 19:01:43 10° SW 19:04:53 22° W 19:08:08 10° NW
Meteor 2-12 Rocket 4.3 19:10:10 10° S 19:15:29 67° SSE 19:15:29 67° SSE
Cosmos 44 4.1 19:13:44 10° SW 19:16:42 40° SW 19:16:42 40° SW
Atlas Centaur 2 4.4 19:19:58 10° S 19:21:22 13° S 19:21:22 13° S
ADEOS Rocket 3.3 19:16:47 10° NNE 19:23:13 77° WNW 19:30:23 10° SSW
USA 267 4.2 19:41:23 35° N 19:41:28 35° N 19:47:15 10° WNW
Ariane Rocket 4.2 19:40:06 18° SSW 19:43:22 39° W 19:48:08 10° NNW
FALCON 9 R/B 4.5 19:36:41 10° SW 19:44:03 19° S 19:44:06 19° S
H-2A R/B 4.1 19:55:45 18° NNW 19:55:45 18° NNW 19:57:08 10° NNW
SL-16 R/B 3.7 20:04:15 10° NW 20:09:11 31° WSW 20:09:13 31° WSW
ATLAS 5 CENTAUR R/B 4.0 20:20:07 10° NW 20:55:43 - SE 20:24:37 72° NW
Cosmos 2297 Rocket 4.4 20:26:25 10° W 20:30:17 19° NW 20:30:17 19° NW
